Flag for U.S.A. Weather past 2 weeks in Sacramento, California, U.S.A.

Now
103 °F

Sunny.


Feels Like: 100 °F
Forecast: 65 / 98 °F
Wind: 10 mph from Southwest

Location: Sacramento Executive Airport

Current Time: Aug 1, 2014 at 5:53:34 PM

Latest Report: Aug 1, 2014 at 4:53 PM


Visibility: 10 mi

Pressure: 29.78 "Hg

Humidity: 18%

Dew point: 52 °F

Location of SacramentoLocation

Historic Weather in Sacramento — Graph

°F

Sacramento temperature yesterday

Maximum temperature yesterday: 99 °F (at 4:53 PM)
Minimum temperature yesterday: 64 °F (at 6:53 AM)
Average temperature yesterday: 79 °F

Past Weeks' High & Low Weather Summary

 TemperatureHumidityPressure
High103 °F (Aug 1, 3:53 PM)90% (Jul 23, 5:53 AM)30.12 "Hg (Jul 23, 5:53 AM)
Low59 °F (Jul 19, 5:53 AM)8% (Jul 25, 4:53 PM)29.76 "Hg (Jul 25, 6:53 PM)
Average76 °F52%29.91 "Hg
* Reported Jul 17 4:53 PM — Aug 1 4:53 PM, Sacramento, Weather by CustomWeather, © 2014

Note: Actual official high and low records may vary slightly from our data, if they occured in-between our weather recording intervals... More about our weather records

Advertising

Sacramento weather history for previous 24 hours

 ConditionsComfort  
Time TempWeatherWind HumidityBarometerVisibility
4:53 PM
Aug 1
103 °FSunny.10 mph18%29.78 "Hg10 mi
3:53 PM103 °FSunny.10 mph16%29.79 "Hg10 mi
2:53 PM101 °FSunny.7 mph19%29.81 "Hg10 mi
1:53 PM99 °FSunny.No wind21%29.83 "Hg10 mi
12:53 PM96 °FSunny.6 mph26%29.84 "Hg10 mi
11:53 AM90 °FSunny.5 mph31%29.85 "Hg10 mi
10:53 AM85 °FSunny.3 mph40%29.85 "Hg10 mi
9:53 AM79 °FSunny.3 mph50%29.85 "Hg10 mi
8:53 AM72 °FSunny.3 mph59%29.85 "Hg8 mi
7:53 AM69 °FSunny.3 mph63%29.84 "Hg10 mi
6:53 AM66 °FClear.No wind70%29.83 "Hg10 mi
5:53 AM66 °FClear.No wind70%29.82 "Hg10 mi
4:53 AM66 °FClear.3 mph70%29.82 "Hg10 mi
3:53 AM67 °FClear.No wind68%29.82 "Hg10 mi
2:53 AM69 °FClear.No wind63%29.82 "Hg10 mi
1:53 AM70 °FClear.No wind61%29.82 "Hg10 mi
12:53 AM71 °FClear.3 mph59%29.83 "Hg10 mi
11:53 PM
Jul 31
73 °FClear.3 mph53%29.82 "Hg10 mi
10:53 PM75 °FClear.3 mph52%29.82 "Hg10 mi
9:53 PM77 °FClear.5 mph48%29.82 "Hg10 mi
8:53 PM82 °FSunny.5 mph38%29.80 "Hg10 mi
7:53 PM88 °FSunny.5 mph31%29.79 "Hg10 mi
6:53 PM94 °FSunny.5 mph30%29.78 "Hg10 mi
5:53 PM97 °FSunny.8 mph25%29.79 "Hg10 mi
Weather by CustomWeather, © 2014

See weather overviewHow to use our weather pages